This demonstration page uses our WeatherBlox Daily Observations layout. Learn more.

Left ArrowRight Arrow

Hourly Observations for April 2, 2021

Temp ( °F °C ) Dew Point ( °F °C ) Humidity (%) Winds ( mph kmh ) Pressure ( in mb ) Visibility ( mi km ) Precip ( " mm )
12:53 am 00:53 Clear 40 4.4 19 -7.2 43 43 NNW 7 11 30.33 1027 10 16 0.00 0.00
1:53 am 01:53 Clear 38 3.3 19 -7.2 46 46 NNW 6 9 30.34 1027 10 16 0.00 0.00
2:53 am 02:53 Clear 36 2.2 20 -6.7 52 52 NNW 3 6 30.34 1027 10 16 0.00 0.00
3:53 am 03:53 Clear 35 1.7 22 -5.6 59 59 NNW 3 6 30.33 1027 10 16 0.00 0.00
4:53 am 04:53 Clear 33 0.6 21 -6.1 61 61 NNW 5 7 30.35 1028 10 16 0.00 0.00
5:53 am 05:53 Clear 33 0.6 21 -6.1 61 61 NNW 5 7 30.36 1028 10 16 0.00 0.00
6:53 am 06:53 Clear 33 0.6 21 -6.1 61 61 NNW 6 9 30.38 1029 10 16 0.00 0.00
7:53 am 07:53 Sunny 33 0.6 21 -6.1 61 61 N 6 9 30.41 1030 10 16 0.00 0.00
8:53 am 08:53 Sunny 36 2.2 21 -6.1 55 55 NNW 10 17 30.43 1030 10 16 0.00 0.00
9:53 am 09:53 Sunny 40 4.4 19 -7.2 43 43 N 13 20 30.44 1031 10 16 0.00 0.00
10:53 am 10:53 Sunny 42 5.6 18 -7.8 38 38 N 9 15 30.44 1031 10 16 0.00 0.00
11:53 am 11:53 Sunny 45 7.2 16 -8.9 31 31 undefined N/A 30.45 1031 10 16 0.00 0.00
12:53 pm 12:53 Sunny 48 8.9 17 -8.3 29 29 undefined N/A 30.43 1031 10 16 0.00 0.00
1:53 pm 13:53 Sunny 52 11.1 15 -9.4 23 23 undefined N/A 30.41 1030 10 16 0.00 0.00
2:53 pm 14:53 Sunny 54 12.2 18 -7.8 24 24 undefined N/A 30.39 1029 10 16 0.00 0.00
3:53 pm 15:53 Sunny 55 12.8 17 -8.3 22 22 N 12 19 30.37 1028 10 16 0.00 0.00
4:53 pm 16:53 Sunny 56 13.3 19 -7.2 24 24 N 8 13 30.36 1028 10 16 0.00 0.00
5:53 pm 17:53 Sunny 55 12.8 20 -6.7 25 25 WNW 9 15 30.35 1028 10 16 0.00 0.00
6:53 pm 18:53 Sunny 54 12.2 21 -6.1 28 28 NNW 8 13 30.35 1028 10 16 0.00 0.00
7:53 pm 19:53 Sunny 50 10 19 -7.2 29 29 NW 7 11 30.36 1028 10 16 0.00 0.00
8:53 pm 20:53 Clear 47 8.3 20 -6.7 34 34 NNW 6 9 30.37 1029 10 16 0.00 0.00
9:53 pm 21:53 Clear 45 7.2 19 -7.2 35 35 N 3 6 30.39 1029 10 16 0.00 0.00
10:53 pm 22:53 Clear 43 6.1 19 -7.2 38 38 Calm 30.39 1029 10 16 0.00 0.00
11:53 pm 23:53 Clear 42 5.6 19 -7.2 40 40 Calm 30.39 1029 10 16 0.00 0.00

Powered by AerisWeather